Hourly Data Report for August 07, 2022

MIRAMICHI RCS
NEW BRUNSWICK
Current Station Operator: ECCC - MSC

47°00'34.000" N
65°27'54.000" W
33.00 m
8100989
71744
ACQ

Download Data

Hourly Data (August 2022)
Hourly Data Report for August 7, 2022
TIME
LST
Temp Definition
°C
Dew Point Definition
°C
Rel Hum Definition
%
Precip. Amount Definition
mm

Wind Dir Definition
10's deg

Wind Spd Definition
km/h
Visibility Definition
km
Stn Press Definition
kPa
Hmdx Definition


Wind Chill Definition


Weather Definition


00:00 23.7 20.2 81 0.0 23 13   101.16 31   LegendNANA
01:00 23.4 20.2 82 0.0 23 15   101.11 31   LegendNANA
02:00 22.8 20.1 85 0.0 23 17   101.09 30   LegendNANA
03:00 22.5 20.1 86 0.0 22 15   101.07 30   LegendNANA
04:00 22.4 20.2 87 0.0 22 17   101.00 30   LegendNANA
05:00 22.0 20.0 89 0.0 22 14   100.97 30   LegendNANA
06:00 22.1 20.1 89 0.0 23 12   100.95 30   LegendNANA
07:00 22.9 20.5 86 0.0 22 17   100.93 31   LegendNANA
08:00 25.0 21.4 81 0.0 22 23   100.86 34   LegendNANA
09:00 26.0 21.7 78 0.0 23 22   100.81 35   LegendNANA
10:00 28.2 22.1 70 0.0 22 24   100.73 38   LegendNANA
11:00 29.8 22.3 64 0.0 22 26   100.67 39   LegendNANA
12:00 31.9 21.4 54 0.0 24 28   100.58 41   LegendNANA
13:00 32.5 19.3 46 0.0 25 23   100.56 40   LegendNANA
14:00 32.4 19.9 48 0.0 25 23   100.54 40   LegendNANA
15:00 32.8 20.5 48 0.0 24 23   100.47 41   LegendNANA
16:00 27.4 21.5 70 0.0 31 16   100.58 36   LegendNANA
17:00 23.4 21.9 91 4.9 29 14   100.73 33   LegendNANA
18:00 23.2 21.9 93 1.8 27 6   100.67 32   LegendNANA
19:00 23.3 21.7 91 0.0 25 8   100.66 32   LegendNANA
20:00 22.5 20.9 90 0.0 27 8   100.71 31   LegendNANA
21:00 22.0 19.2 84 0.0 27 10   100.76 29   LegendNANA
22:00 21.2 18.7 86 0.0 29 8   100.81 28   LegendNANA
23:00 20.6 16.1 75 0.0 32 8   100.92 25   LegendNANA

Notes on Data Quality.

Legend

  • E = Estimated
  • M = Missing
  • NA = Not Available*
  • [empty] = Indicates an unobserved value
Date modified: